{"data":{"norad_id":56704,"intl_designator":"2023-067S","name":"STARLINK-30066","alt_names":[],"object_type":"PAYLOAD","status":"ACTIVE","operator":null,"country":"US","launch_date":"2023-05-19","launch_site_code":"AFETR","launch_vehicle":null,"mission":null,"orbit_class":"UNKNOWN","rcs_meters":null,"size_class":null,"mass_kg":null,"dimensions":null,"purposes":["comms"],"wikipedia_slug":null,"has_3d_model":false,"image_url":null,"decayed_at":null,"tle_current":{"epoch":"2026-05-25T04:49:33.991968Z","epoch_age_seconds":64657,"freshness":"FRESH","line1":"1 56704U 23067S   26145.20108787  .00001483  00000+0  63397-4 0  9998","line2":"2 56704  43.0024 198.7641 0001302 277.5897  82.4807 15.27577712167405","mean_motion":15.27577712,"eccentricity":0.0001302,"inclination_deg":43.0024,"raan_deg":198.7641,"arg_perigee_deg":277.5897,"mean_anomaly_deg":82.4807,"bstar":6.3397e-5,"rev_number":16740,"period_min":94.266889906024,"perigee_km":482.16261982159,"apogee_km":483.94927446503,"semimajor_km":6861.1929471433,"source":"CELESTRAK","updated_at":"2026-05-25T13:38:18.122122Z"}}}